ETD81C EGLL-OMAA

Flight info

Callsign ETD81C
Flight time N/A
Altitude 37000
Route DET L6 DVR UL9 KONAN DCT KOK UL607 SPI DCT BOMBI DCT TENLO DCT LAMSI DCT SASAL DCT BABIT DCT NISVA DCT RODIP/N0462F390 DCT BELGI UT38 VESAR L620 BALMA UR655 CAK UN310 LATEB N310 BASEM R785 RASLI P559 TRF R23 NEVOL N318 TAMRO T503 KSA N687 KINIB Z511 GISRA L681 ORLEK DCT KUPRO/N0492F350 N300 KAXOB Q415 UKILI
Aircraft A343/H-SDE2E3FGHIJ4J5M1RWXY/LB1D1

Departure

Time 2026-05-06 13:52
Airport London Heathrow Airport (EGLL)

Arrival

Time N/A
Airport Zayed International Airport (OMAA)
Time Latitude Longitude Altitude Speed Heading
2026-05-06 13:24 51.46125 -0.44720 94 ft 0 kts 131°
2026-05-06 13:33 51.46130 -0.44728 95 ft 4 kts 131°
2026-05-06 13:33 51.46147 -0.44760 94 ft 4 kts 131°
2026-05-06 13:33 51.46162 -0.44786 94 ft 4 kts 128°
2026-05-06 13:33 51.46173 -0.44822 93 ft 4 kts 90°
2026-05-06 13:34 51.46166 -0.44860 93 ft 4 kts 49°
2026-05-06 13:34 51.46148 -0.44888 94 ft 4 kts 41°
2026-05-06 13:34 51.46128 -0.44917 93 ft 4 kts 41°
2026-05-06 13:34 51.46112 -0.44939 93 ft 4 kts 41°
2026-05-06 13:35 51.46099 -0.44958 92 ft 0 kts 41°
2026-05-06 13:38 51.46102 -0.44954 94 ft 2 kts 41°
2026-05-06 13:38 51.46132 -0.44911 93 ft 9 kts 40°
2026-05-06 13:38 51.46188 -0.44912 93 ft 8 kts 321°
2026-05-06 13:39 51.46199 -0.44990 94 ft 8 kts 270°
2026-05-06 13:39 51.46199 -0.45087 94 ft 9 kts 270°
2026-05-06 13:39 51.46199 -0.45199 94 ft 11 kts 270°
2026-05-06 13:39 51.46199 -0.45327 94 ft 12 kts 270°
2026-05-06 13:40 51.46209 -0.45463 92 ft 13 kts 298°
2026-05-06 13:40 51.46279 -0.45552 94 ft 13 kts 327°
2026-05-06 13:40 51.46327 -0.45667 94 ft 13 kts 273°
2026-05-06 13:40 51.46324 -0.45822 90 ft 14 kts 269°
2026-05-06 13:41 51.46322 -0.45987 90 ft 15 kts 269°
2026-05-06 13:41 51.46319 -0.46166 93 ft 16 kts 269°
2026-05-06 13:41 51.46317 -0.46355 93 ft 18 kts 269°
2026-05-06 13:41 51.46314 -0.46553 92 ft 18 kts 270°
2026-05-06 13:42 51.46321 -0.46762 91 ft 19 kts 274°
2026-05-06 13:42 51.46322 -0.46967 90 ft 19 kts 270°
2026-05-06 13:42 51.46322 -0.47176 93 ft 19 kts 270°
2026-05-06 13:42 51.46332 -0.47387 96 ft 19 kts 284°
2026-05-06 13:43 51.46339 -0.47593 97 ft 19 kts 258°
2026-05-06 13:43 51.46283 -0.47784 96 ft 20 kts 242°
2026-05-06 13:43 51.46245 -0.47993 96 ft 20 kts 266°
2026-05-06 13:43 51.46246 -0.48093 95 ft 0 kts 271°
2026-05-06 13:44 51.46246 -0.48121 94 ft 5 kts 271°
2026-05-06 13:44 51.46247 -0.48197 92 ft 9 kts 271°
2026-05-06 13:44 51.46249 -0.48319 88 ft 12 kts 271°
2026-05-06 13:44 51.46250 -0.48457 90 ft 12 kts 271°
2026-05-06 13:45 51.46259 -0.48593 94 ft 13 kts 285°
2026-05-06 13:45 51.46286 -0.48675 94 ft 0 kts 307°
2026-05-06 13:49 51.46287 -0.48676 94 ft 1 kts 307°
2026-05-06 13:49 51.46302 -0.48699 93 ft 7 kts 320°
2026-05-06 13:50 51.46355 -0.48739 95 ft 8 kts 345°
2026-05-06 13:50 51.46417 -0.48748 90 ft 10 kts 360°
2026-05-06 13:50 51.46473 -0.48701 95 ft 7 kts 63°
2026-05-06 13:50 51.46477 -0.48648 94 ft 0 kts 88°
2026-05-06 13:51 51.46477 -0.48647 94 ft 3 kts 88°
2026-05-06 13:51 51.46483 -0.48370 94 ft 55 kts 88°
2026-05-06 13:51 51.46483 -0.47409 94 ft 114 kts 90°
2026-05-06 13:51 51.46487 -0.45899 94 ft 160 kts 89°
2026-05-06 13:52 51.46483 -0.44030 559 ft 169 kts 91°
2026-05-06 13:52 51.46386 -0.42164 1192 ft 174 kts 102°
2026-05-06 13:52 51.45902 -0.40311 1559 ft 198 kts 115°
2026-05-06 13:52 51.45211 -0.38193 1929 ft 225 kts 117°
2026-05-06 13:53 51.44515 -0.35858 2524 ft 242 kts 112°
2026-05-06 13:53 51.43906 -0.33349 3503 ft 246 kts 109°
2026-05-06 13:53 51.43308 -0.30717 4472 ft 251 kts 109°
2026-05-06 13:53 51.42774 -0.28094 5350 ft 255 kts 104°
2026-05-06 13:54 51.42353 -0.25307 5902 ft 259 kts 102°
2026-05-06 13:54 51.41964 -0.22465 6076 ft 262 kts 102°
2026-05-06 13:54 51.41581 -0.19632 6097 ft 263 kts 102°
2026-05-06 13:54 51.41319 -0.17707 6100 ft 263 kts 102°
2026-05-06 13:55 51.40929 -0.14853 6099 ft 263 kts 102°
2026-05-06 13:55 51.40409 -0.11031 6097 ft 263 kts 102°
2026-05-06 13:55 51.40139 -0.09086 6104 ft 263 kts 102°
2026-05-06 13:55 51.39743 -0.06241 6102 ft 263 kts 102°
2026-05-06 13:56 51.39344 -0.03367 6096 ft 263 kts 102°
2026-05-06 13:56 51.38946 -0.00508 6102 ft 263 kts 102°
2026-05-06 13:56 51.38549 0.02348 6096 ft 263 kts 102°
2026-05-06 13:56 51.38149 0.05212 6098 ft 263 kts 102°
2026-05-06 13:57 51.37749 0.08080 6110 ft 263 kts 102°
2026-05-06 13:57 51.37353 0.10940 6097 ft 263 kts 102°
2026-05-06 13:57 51.36951 0.13801 6099 ft 263 kts 102°
2026-05-06 13:57 51.36549 0.16648 6096 ft 263 kts 102°
2026-05-06 13:58 51.36147 0.19510 6097 ft 263 kts 102°
2026-05-06 13:58 51.35747 0.22366 6100 ft 263 kts 102°
2026-05-06 13:58 51.35340 0.25235 6097 ft 263 kts 102°
2026-05-06 13:58 51.34941 0.28053 6100 ft 263 kts 102°
2026-05-06 13:59 51.34529 0.30946 6102 ft 263 kts 102°
2026-05-06 13:59 51.34121 0.33803 6101 ft 263 kts 102°
2026-05-06 13:59 51.33719 0.36618 6103 ft 263 kts 102°
2026-05-06 13:59 51.33305 0.39513 6106 ft 263 kts 102°
2026-05-06 14:00 51.32903 0.42333 6104 ft 264 kts 102°
2026-05-06 14:00 51.32493 0.45197 6097 ft 263 kts 102°
2026-05-06 14:00 51.32086 0.48050 6099 ft 263 kts 102°
2026-05-06 14:00 51.31680 0.50886 6097 ft 263 kts 102°
2026-05-06 14:01 51.31266 0.53752 6097 ft 264 kts 102°
2026-05-06 14:01 51.30855 0.56600 6108 ft 264 kts 102°
2026-05-06 14:01 51.30442 0.59453 6108 ft 263 kts 102°
2026-05-06 14:01 51.30016 0.62285 6273 ft 263 kts 104°
2026-05-06 14:02 51.29515 0.65120 6823 ft 267 kts 106°
2026-05-06 14:02 51.28973 0.67970 7760 ft 268 kts 107°
2026-05-06 14:02 51.28420 0.70827 8724 ft 270 kts 107°
2026-05-06 14:02 51.27870 0.73698 9599 ft 273 kts 106°
2026-05-06 14:03 51.27319 0.76626 10416 ft 279 kts 106°
2026-05-06 14:03 51.26748 0.79703 10837 ft 299 kts 106°
2026-05-06 14:03 51.26142 0.82989 11166 ft 319 kts 106°
2026-05-06 14:03 51.25499 0.86483 11495 ft 337 kts 105°
2026-05-06 14:04 51.24817 0.90191 11760 ft 357 kts 106°
2026-05-06 14:04 51.24109 0.94030 12271 ft 367 kts 106°
2026-05-06 14:04 51.23376 0.97982 12929 ft 373 kts 106°
2026-05-06 14:04 51.22635 1.01969 13603 ft 379 kts 106°